This is the latest recevied weather packets stored in our database for station/object IW2NTF-3. If no packets are shown the sender has not sent any weather packets the latest 1 day(s).
| Time | Temp. | Humidity | Pressure | Rain* | Wind** | Luminosity | Snow |
|---|---|---|---|---|---|---|---|
| 1777999863 | 15.56° C | 82% | 1012.2 hPa | 0 mm | 0.45 m/s, 102° | 58 W/m² | - |
| 1777999803 | 15.56° C | 82% | 1012.2 hPa | 0 mm | 0.45 m/s, 102° | 53 W/m² | - |
| 1777999743 | 15.56° C | 82% | 1012.2 hPa | 0 mm | 0.45 m/s, 104° | 49 W/m² | - |
| 1777999683 | 15.56° C | 82% | 1012.1 hPa | 0 mm | 0.45 m/s, 107° | 47 W/m² | - |
| 1777999623 | 15.56° C | 82% | 1012.1 hPa | 0 mm | 0.45 m/s, 107° | 49 W/m² | - |
| 1777999563 | 15.56° C | 82% | 1012.1 hPa | 0 mm | 0.45 m/s, 105° | 51 W/m² | - |
| 1777999503 | 15.56° C | 82% | 1012.2 hPa | 0 mm | 0.45 m/s, 100° | 51 W/m² | - |
| 1777999443 | 15.56° C | 82% | 1012.2 hPa | 0 mm | 0.45 m/s, 94° | 53 W/m² | - |
| 1777999383 | 15.56° C | 82% | 1012.2 hPa | 0 mm | 0.45 m/s, 90° | 53 W/m² | - |
| 1777999323 | 15.56° C | 81% | 1012.2 hPa | 0 mm | 0.89 m/s, 89° | 49 W/m² | - |
| 1777999263 | 15.56° C | 82% | 1012.2 hPa | 0 mm | 0.89 m/s, 88° | 44 W/m² | - |
| 1777999203 | 15.56° C | 82% | 1012.3 hPa | 0 mm | 0.89 m/s, 90° | 42 W/m² | - |
| 1777999143 | 15° C | 82% | 1012.3 hPa | 0 mm | 0.89 m/s, 89° | 54 W/m² | - |
| 1777999083 | 15° C | 81% | 1012.2 hPa | 0 mm | 0.89 m/s, 85° | 58 W/m² | - |
| 1777999023 | 15.56° C | 82% | 1012.3 hPa | 0 mm | 0.89 m/s, 82° | 60 W/m² | - |
| 1777998963 | 15° C | 82% | 1012.3 hPa | 0 mm | 0.45 m/s, 82° | 56 W/m² | - |
| 1777998903 | 15.56° C | 82% | 1012.2 hPa | 0 mm | 0.45 m/s, 83° | 54 W/m² | - |
| 1777998843 | 15.56° C | 82% | 1012.2 hPa | 0 mm | 0.45 m/s, 84° | 51 W/m² | - |
| 1777998783 | 15.56° C | 82% | 1012.2 hPa | 0 mm | 0.45 m/s, 88° | 46 W/m² | - |
| 1777998723 | 15.56° C | 82% | 1012.3 hPa | 0 mm | 0.45 m/s, 93° | 42 W/m² | - |
| 1777998663 | 15.56° C | 82% | 1012.3 hPa | 0 mm | 0.45 m/s, 101° | 39 W/m² | - |
| 1777998603 | 15.56° C | 82% | 1012.2 hPa | 0 mm | 0.45 m/s, 101° | 39 W/m² | - |
| 1777998543 | 15.56° C | 82% | 1012.2 hPa | 0 mm | 0.45 m/s, 106° | 39 W/m² | - |
| 1777998483 | 15.56° C | 82% | 1012.3 hPa | 0 mm | 0.45 m/s, 118° | 39 W/m² | - |
| 1777998423 | 15.56° C | 82% | 1012.3 hPa | 0 mm | 0.45 m/s, 131° | 39 W/m² | - |
* Rain latest hour (hover to see other rain measurements)
** Current wind speed in m/s (hover to see current wind gust speed)